Location: Asche
(51.6158°N, 9.8144°E)
Time: 05:24:34
(UTC+00:00)

Daily predictions for brighter satellites

Satellite Brightness Start Highest point End
(mag) Time Altitude Azimuth Time Altitude Azimuth Time Altitude Azimuth
Cosmos 1825 2.7 00:04:51 23° SW 00:06:33 42° WNW 00:09:50 10° N
SL-4 R/B 3.5 00:04:00 10° W 00:06:37 19° SW 00:06:37 19° SW
Cosmos 2154 Rocket 4.1 00:07:15 20° SSW 00:11:43 78° W 00:18:04 10° N
Okean 1 Rocket 3.8 00:09:40 10° NNW 00:13:43 39° W 00:16:03 21° SSW
Cosmos 2297 Rocket 2.9 00:09:02 11° SW 00:14:20 49° NW 00:19:50 10° NNE
SL-12 R/B(2) 4.4 00:07:46 17° SSW 00:14:23 72° SE 00:24:18 10° NE
Cosmos 923 Rocket 4.2 00:09:42 10° NNW 00:15:00 74° ENE 00:20:13 10° SSE
NOSS 3-2 (A) 3.6 00:12:23 21° S 00:15:40 48° ESE 00:21:36 10° NE
Meteor 1-21 Rocket 4.3 00:12:01 20° S 00:16:04 81° E 00:21:46 10° NNE
ADEOS II 4.4 00:14:39 10° NE 00:17:19 14° E 00:19:57 10° ESE
Cosmos 2219 3.3 00:14:01 21° SSW 00:17:51 68° ESE 00:23:26 10° NE
Aureole 1 Rocket 3.1 00:17:04 25° S 00:19:04 58° ESE 00:23:34 10° NNE
Cosmos 2228 4.3 00:18:51 10° N 00:22:55 37° ENE 00:26:54 10° SE
Cosmos 1937 Rocket 4.3 00:19:39 17° SSE 00:23:16 40° ESE 00:28:09 10° NE
Cosmos 1544 Rocket 4.3 00:19:56 10° N 00:24:17 51° ENE 00:28:20 11° SSE
SL-16 R/B 4.4 00:21:42 10° ESE 00:26:53 29° NE 00:32:03 10° N
Cosmos 1898 Rocket 3.8 00:24:22 20° S 00:27:52 57° ESE 00:32:56 10° NNE
SL-8 Rocket 4.4 00:23:21 16° SSE 00:28:18 59° E 00:34:24 10° NNE
Cosmos 1606 2.9 00:27:09 10° N 00:30:42 60° ENE 00:33:25 16° SSE
H-2A R/B 3.3 00:29:00 10° N 00:32:47 31° WNW 00:35:54 13° WSW
Resurs 1-4 Rocket 3.7 00:28:32 10° NE 00:33:01 27° E 00:37:28 10° SSE
Cosmos 2084 Rocket 4.0 00:31:32 10° WSW 00:35:37 52° NW 00:39:39 10° NE
Cosmos 1975 Rocket 3.0 00:37:42 21° SSW 00:40:37 85° W 00:45:03 10° N
Meteor 2-1 Rocket 4.3 00:35:11 10° NNW 00:41:08 79° W 00:46:08 14° S
Cosmos 292 Rocket 3.8 00:40:12 20° SSW 00:43:35 87° WNW 00:48:26 10° NNE
Cosmos 2263 Rocket 2.2 00:42:06 18° SSW 00:46:17 79° ESE 00:51:53 10° NNE
BlueWalker 3 2.2 00:45:17 10° W 00:49:01 67° N 00:52:46 10° E
Orbus 7S? 2.6 00:46:47 10° WNW 00:49:26 65° SSW 00:53:10 10° SE
BREEZE-M DEB (TANK) 4.2 00:46:39 10° W 00:50:08 74° S 01:01:09 10° E
Cosmos 1455 Rocket 3.8 00:46:03 10° NNW 00:50:11 38° W 00:52:57 18° SSW
Cosmos 921 Rocket 4.3 00:52:24 10° N 00:56:26 39° ENE 01:00:23 10° SE
Cosmos 1680 Rocket 3.5 00:51:44 10° NNW 00:56:56 72° WSW 01:02:07 10° SSE
Cosmos 2112 Rocket 3.9 00:54:21 10° NNW 00:59:33 79° WSW 01:04:43 10° SSE
Cosmos 2341 Rocket 4.0 00:56:40 16° SSW 01:01:48 80° WNW 01:08:04 10° N
Cosmos 1818 3.8 00:57:46 10° NW 01:03:04 51° WSW 01:08:20 10° SSE
Helios 1A Rocket 3.5 01:02:09 18° SSW 01:04:24 35° W 01:07:56 10° NNW
USA 234 3.9 00:58:32 10° E 01:04:58 61° N 01:11:24 10° WNW
Cosmos 1025 Rocket 4.4 01:02:30 13° SW 01:05:41 28° WNW 01:09:26 10° N
Cosmos 1844 Rocket 4.1 01:01:20 10° SSE 01:05:59 28° ESE 01:10:38 10° NE
Cosmos 1461 2.8 01:06:44 18° SSW 01:09:35 64° SE 01:13:25 10° NE
Cosmos 1536 Rocket 4.0 01:06:18 12° S 01:10:17 57° E 01:14:39 10° NNE
COBE Rocket 4.1 01:11:34 10° N 01:16:44 80° WNW 01:21:15 14° SSW
CENTAUR R/B 3.0 01:12:10 10° WSW 01:18:09 63° NW 01:25:39 10° NE
IDEFIX/ARIANE 42P 2.7 01:15:32 10° NNE 01:20:50 80° ESE 01:25:41 12° SSW
SL-16 R/B 3.6 01:18:52 10° NW 01:23:06 22° W 01:26:33 13° SW
Meteor 1-28 Rocket 4.3 01:20:58 10° SE 01:24:18 42° ENE 01:27:42 10° N
Cosmos 1869 4.1 01:24:01 10° NNW 01:27:18 31° W 01:29:53 14° SSW
USA 238 DEB 4.2 01:23:02 11° S 01:28:34 44° ESE 01:34:54 10° NE
Cosmos 1603 3.7 01:22:48 10° NNW 01:28:35 79° WSW 01:34:18 10° SSE
USA 238 4.3 01:23:04 11° S 01:28:37 44° ESE 01:34:57 10° NE
CZ-2C R/B 3.5 01:24:07 10° NNE 01:29:33 61° E 01:34:39 10° S
MSX 3.9 01:24:32 10° NNE 01:30:19 82° ESE 01:35:59 10° SSW
Cosmos 1607 4.1 01:24:52 10° NW 01:31:21 87° NE 01:37:41 10° SE
Cosmos 1821 Rocket 4.0 01:26:29 10° S 01:32:35 85° E 01:38:48 10° N
Cosmos 1048 Rocket 4.3 01:27:42 10° NNW 01:32:56 73° ENE 01:38:11 10° SSE
ASTEX 1 4.0 01:28:49 10° SSE 01:33:34 57° ENE 01:38:21 10° N
CZ-2D R/B 2.2 01:30:58 10° NNE 01:36:22 78° ESE 01:41:38 10° SSW
Cosmos 2082 4.2 01:31:20 11° SW 01:36:43 54° NW 01:42:15 10° NNE
Cosmos 2218 Rocket 4.3 01:31:20 12° SSW 01:37:02 59° WNW 01:43:09 10° N
CZ-4C R/B 4.1 01:32:36 10° WNW 01:37:21 31° NNW 01:43:13 10° NE
Cosmos 1943 3.5 01:32:09 10° NW 01:37:29 46° WSW 01:42:48 10° S
CZ-2C R/B 2.7 01:32:45 10° S 01:38:00 62° W 01:43:23 10° NNW
Cosmos 2227 Rocket 3.8 01:33:58 10° W 01:38:47 27° NW 01:43:36 10° NNE
Cosmos 1437 Rocket 2.8 01:35:32 11° S 01:39:15 75° E 01:43:02 10° NNE
Cosmos 1900 4.5 01:34:55 12° SSW 01:39:36 76° SE 01:44:42 10° NE
FENGYUN 3A 4.1 01:36:41 10° NNE 01:42:01 61° ESE 01:47:20 10° S
Cosmos 2366 rocket 4.4 01:37:03 12° SSW 01:42:50 52° WNW 01:48:56 10° N
Cosmos 494 Rocket 4.0 01:41:22 10° NNW 01:46:35 69° WSW 01:51:48 10° SSE
Cosmos 1867 4.0 01:47:42 10° SSW 01:53:03 58° SE 01:58:26 10° NE
Cosmos 2058 Rocket 4.1 01:50:47 10° N 01:55:08 49° ENE 01:59:24 10° SSE
NPP 3.9 01:50:21 10° N 01:55:40 60° WNW 02:00:57 10° SSW
UNK 4.3 01:52:40 10° SSE 01:57:13 63° ENE 02:01:45 10° N
ADEOS II 2.2 01:52:30 10° NNE 01:57:47 81° ESE 02:03:02 10° SSW
Cosmos 1892 Rocket 4.2 01:55:16 10° S 01:59:32 55° E 02:03:54 10° NNE
Cosmos 2228 4.2 01:56:25 10° NNW 02:00:02 26° W 02:03:37 10° SW
AQUA 4.1 01:55:31 10° NNE 02:00:16 70° ESE 02:04:58 10° S
SL-24 DEB 4.3 01:55:57 10° N 02:00:32 86° E 02:05:08 10° S
Iridium 4 Rocket 4.2 01:56:43 10° N 02:00:58 46° E 02:05:32 10° SSE
ATLAS CENTAUR R/B 4.3 02:01:40 10° NNW 02:03:55 15° NNE 02:06:13 10° NE
Cosmos 2123 Rocket 4.1 01:58:46 10° N 02:05:00 89° E 02:11:13 10° S
Cosmos 1937 Rocket 4.5 02:00:18 10° WSW 02:05:13 38° NW 02:10:07 10° NNE
USA 81 4.4 02:00:41 10° N 02:05:58 72° E 02:11:14 10° SSE
NOSS 3-2 (A) 4.1 02:01:06 10° WSW 02:06:29 50° NNW 02:12:59 10° NE
H-2A R/B 4.1 02:03:39 10° N 02:07:24 40° WNW 02:11:08 10° SW
ALOS 2.7 02:03:50 10° NNE 02:08:26 63° E 02:13:00 10° S
Genesis I 3.8 02:05:33 10° NW 02:09:07 56° NE 02:12:41 10° ESE
SL-16 R/B 2.6 02:03:45 10° S 02:10:00 72° WSW 02:16:15 10° NNW
Cosmos 1934 Rocket 4.3 02:03:45 10° S 02:10:04 74° E 02:16:27 10° NNE
USA 267 4.1 02:04:11 10° ENE 02:10:15 39° SE 02:16:17 10° SSW
Cosmos 2227 4.4 02:06:11 10° SW 02:11:54 68° WNW 02:17:41 10° NNE
NOSS 3-2 (C) 3.5 02:07:17 10° SW 02:12:43 73° NW 02:19:18 10° NE
Resurs 1-4 Rocket 2.5 02:07:57 10° N 02:13:06 54° WNW 02:18:14 10° SW
Cosmos 1833 Rocket 4.2 02:08:18 10° NNW 02:13:42 43° NE 02:19:04 10° ESE
